Location: Deichstrich
(53.6737°N, 7.4468°E)
Time: 07:17:48
(UTC+00:00)

Daily predictions for brighter satellites

Satellite Brightness Start Highest point End
(mag) Time Altitude Azimuth Time Altitude Azimuth Time Altitude Azimuth
ATLAS 2AS CENTAUR R/B 3.1 16:21:29 10° SW 16:29:25 77° SE 16:37:11 10° NE
Cosmos 1634 Rocket 4.0 16:23:39 10° N 16:29:53 66° ENE 16:36:07 10° SSE
PSLV R/B 4.1 16:29:06 10° S 16:32:47 68° WSW 16:36:33 10° NNW
Cosmos 1844 Rocket 4.5 16:33:08 10° ESE 16:34:58 12° E 16:36:49 10° ENE
Cosmos 1025 Rocket 3.2 16:31:15 10° SSW 16:35:36 82° WNW 16:40:00 10° N
Cosmos 2344 4.3 16:28:53 10° WNW 16:36:47 50° NNE 16:47:06 10° E
CZ-2C R/B 3.8 16:32:03 10° ESE 16:36:50 33° ENE 16:41:51 10° N
CZ-4B R/B 3.2 16:35:55 10° NE 16:37:58 15° E 16:40:00 10° SE
H-2A R/B 2.5 16:34:30 10° SSE 16:38:33 88° ENE 16:42:49 10° NNW
Okean-O 3.9 16:35:30 10° ESE 16:38:45 20° ENE 16:42:02 10° N
Cosmos 773 Rocket 3.9 16:34:36 10° NNW 16:39:46 68° ENE 16:44:54 10° SE
H-2A R/B 3.1 16:36:02 10° ESE 16:39:52 23° NE 16:43:48 10° N
SeaSat 1 2.9 16:35:47 10° NNE 16:40:40 60° NW 16:45:31 10° SW
Okean O Rocket 1.6 16:37:02 10° SSE 16:41:26 67° ENE 16:45:51 10° N
YAOGAN 6 3.6 16:39:47 10° S 16:43:16 52° W 16:46:50 10° NNW
SMAP 3.1 16:38:48 10° SSE 16:43:27 88° ENE 16:48:09 10° NNW
Cosmos 1626 2.2 16:40:22 10° S 16:43:59 55° E 16:47:38 10° NNE
CZ-4B R/B 3.3 16:40:00 10° SSE 16:45:34 85° ENE 16:51:16 10° NNW
SL-24 R/B 4.2 16:41:38 10° SSE 16:46:00 81° ENE 16:50:46 10° NNW
Timation 1 Rocket 4.5 16:41:11 10° SW 16:47:13 82° NW 16:53:17 10° NNE
Cosmos 1603 4.3 16:43:12 10° NW 16:48:52 66° WSW 16:54:31 10° SSE
Meteor 2-10 Rocket 4.0 16:44:10 10° N 16:49:29 41° ENE 16:54:34 10° SE
AQUARIUS 4.2 16:45:52 10° SSE 16:50:22 90° ESE 16:54:55 10° NNW
Cosmos 2297 Rocket 3.4 16:45:40 10° WSW 16:50:51 36° NW 16:56:05 10° NNE
OPS 8737 4.3 16:51:46 10° NW 16:54:46 90° W 16:58:29 10° SE
Cosmos 1606 Rocket 3.5 16:50:33 10° N 16:54:55 64° ENE 16:59:17 10° SSE
H-2A R/B 2.2 16:52:18 10° NNE 16:56:44 57° ESE 17:01:04 10° S
CZ-2D R/B 3.7 16:54:35 10° SE 16:58:10 38° ENE 17:01:46 10° N
USA 234 3.4 16:52:59 10° E 16:59:29 68° N 17:05:59 10° W
CZ-4C R/B 2.7 16:57:33 10° NNE 17:00:43 86° WNW 17:03:53 10° SSW
YAOGAN 1 3.5 16:57:16 10° ESE 17:00:56 27° ENE 17:04:36 10° N
Cosmos 1892 Rocket 4.3 16:57:20 10° SSE 17:01:08 30° E 17:04:57 10° NNE
ATLAS 5 CENTAUR R/B 1.8 16:58:21 10° SSW 17:02:19 51° SE 17:06:05 14° NE
FengYun 1-2 T 4.3 16:57:33 10° SSE 17:03:08 86° WSW 17:08:48 10° NNW
Cosmos 2082 4.4 16:57:32 10° SW 17:03:08 52° NW 17:08:43 10° NNE
Tsikada Rocket 4.2 16:58:31 10° SSW 17:04:50 77° WNW 17:11:07 10° N
MOS 1 Rocket 4.1 17:02:21 10° NE 17:05:57 25° E 17:09:29 10° SSE
SL-14 R/B 3.2 17:02:36 10° S 17:06:28 75° E 17:10:25 10° NNE
ATLAS 3B R/B 4.3 17:00:16 10° NW 17:06:39 41° WSW 17:13:16 10° S
Helios 1A Rocket 4.0 17:03:23 10° ESE 17:06:47 25° ENE 17:10:12 10° N
Cosmos 2228 3.0 17:02:38 10° N 17:06:56 89° E 17:11:13 10° S
RESURS DK-1 2.4 17:03:44 10° SSW 17:07:53 89° NW 17:11:53 11° NE
Cosmos 2142 Rocket 4.5 17:02:38 10° N 17:08:53 86° E 17:15:01 10° S
SKYMED 2 4.2 17:08:00 10° NNE 17:12:01 35° E 17:16:00 10° SSE
Cosmos 1538 Rocket 3.9 17:08:16 10° NNW 17:13:29 75° ENE 17:18:39 10° SSE
Aureole 3 3.9 17:10:27 10° N 17:13:47 27° ENE 17:16:38 10° SE
Meteor 2-5 Rocket 3.6 17:09:55 10° S 17:15:29 82° E 17:21:03 10° NNE
CZ-4C R/B 2.5 17:10:23 10° WSW 17:15:38 69° NW 17:21:18 14° NE
CZ-3B R/B 1.2 17:13:54 10° WNW 17:16:00 83° SSW 17:20:10 11° ESE
SJ 16-02 2.7 17:15:17 10° SE 17:18:22 19° E 17:18:57 19° E
Nadezhda 4 Rocket 4.5 17:14:20 10° SSE 17:19:59 37° E 17:25:36 10° NNE
Cosmos 1777 Rocket 4.3 17:16:30 10° S 17:21:30 46° ESE 17:26:00 13° NE
Cosmos 2263 Rocket 2.2 17:17:37 10° SSW 17:23:19 88° ESE 17:28:56 11° NNE
Cosmos 1455 2.7 17:20:50 10° N 17:24:24 37° ENE 17:27:58 10° SE
Cosmos 968 Rocket 4.4 17:21:07 10° SW 17:26:02 47° NW 17:31:01 10° NNE
Cosmos 2058 Rocket 3.0 17:21:51 10° N 17:26:22 67° ENE 17:30:51 10° SSE
Cosmos 1354 Rocket 4.1 17:22:34 10° SSW 17:27:55 83° WNW 17:33:18 10° NNE
Cosmos 1300 3.8 17:24:56 10° NNW 17:28:37 47° W 17:32:17 10° SSW
USA-17 4.2 17:26:02 10° SW 17:29:26 80° NW 17:30:58 27° NE
COSMOS 2406 4.1 17:24:58 10° NNW 17:30:05 30° NE 17:32:43 22° E
Landsat 5 4.4 17:29:21 10° N 17:33:12 46° WNW 17:36:55 10° SW
NOSS 7 (H) 4.2 17:31:14 10° WSW 17:34:19 67° NW 17:35:34 30° NE
GENESIS II 4.2 17:33:17 10° SW 17:37:18 85° SE 17:39:28 26° NE
ARGOS 3.4 17:34:14 10° SE 17:39:17 44° ENE 17:44:23 10° N
NOSS 3-1 (C) 4.0 17:33:23 10° NW 17:40:19 65° NNE 17:47:11 16° ESE
Lacrosse 5 2.2 17:35:18 10° WNW 17:40:20 67° SSW 17:44:59 12° SE
CREW DRAGON DEMO-1 DEB 3.6 17:38:01 10° W 17:40:48 43° SSW 17:41:52 28° SE
Cosmos 1726 Rocket 4.1 17:37:35 10° NNW 17:41:53 60° W 17:46:12 10° S
Okean 1-7 Rocket 3.8 17:38:12 10° S 17:42:36 51° E 17:47:03 10° NNE
ERS-2 2.6 17:42:03 34° ENE 17:42:47 38° E 17:46:12 10° S
CZ-2C R/B 4.1 17:45:49 20° ESE 17:45:49 20° ESE 17:48:26 10° SE
PSLV R/B 4.4 17:43:31 28° NE 17:45:05 38° E 17:49:02 10° SSE
ISS -1.5 17:43:30 10° S 17:45:00 13° SSE 17:45:00 13° SSE
Cosmos 1939 Rocket 3.8 17:42:24 10° S 17:46:26 51° W 17:50:26 10° NNW
CSL-04 Debris 4.2 17:44:08 10° SE 17:49:21 54° ENE 17:54:36 10° N
Meteor 1-24 Rocket 3.8 17:44:19 10° SSW 17:49:38 71° WNW 17:54:58 10° N
COSMOS 2455 3.0 17:44:50 10° SSW 17:50:40 55° ESE 17:54:03 25° NE
Cosmos 1833 Rocket 3.3 17:48:10 10° NNW 17:53:18 34° NE 17:54:41 30° ENE
Cosmos 1626 Rocket 4.0 17:49:50 10° SSE 17:53:51 37° E 17:54:01 37° E
Cosmos 2082 Rocket 3.2 17:50:18 10° NNW 17:55:05 26° NE 17:55:56 25° NE
Cosmos 1844 4.3 17:50:45 10° S 17:55:50 36° ESE 17:57:10 32° E
Cosmos 2026 Rocket 4.5 17:51:42 10° SSE 17:57:06 34° E 18:02:36 10° NNE
IRS-1C Rocket 4.3 17:51:59 10° S 17:57:14 73° WSW 18:02:32 10° NNW
USA 229 DEB 3.9 17:50:16 10° NW 17:57:20 62° NNE 18:01:49 26° ESE
USA 229 3.9 17:50:22 10° NW 17:57:25 62° NNE 18:01:52 26° ESE
USA 281 4.1 17:56:41 25° NE 17:58:09 27° NE 18:03:27 10° NNW
CZ-4 R/B 1.3 17:54:32 10° SSE 17:58:39 87° WSW 18:02:42 10° NNW
COSMO-SKYMED 1 2.5 17:55:54 10° NNE 18:00:18 88° WNW 18:04:39 10° SSW
NOSS 3-4 (A) 4.2 17:57:22 10° W 18:03:11 45° NNW 18:07:06 22° NE
NOSS 3-4 (C) 4.2 17:57:30 10° W 18:03:20 45° NNW 18:07:15 22° NE
SL-08 RB Rocket 3.8 18:05:16 42° E 18:06:05 47° ENE 18:10:25 10° N
Ariane Rocket 4.1 18:10:03 27° NE 18:10:03 27° NE 18:13:15 10° N
CZ-4B R/B 2.2 18:08:14 19° N 18:10:29 52° WNW 18:13:45 10° SSW
Cosmos 2227 Rocket 4.2 18:07:31 10° WNW 18:11:39 20° NNW 18:15:38 10° NNE
NOSS 3-1 (A) 3.9 18:05:54 10° NW 18:12:52 65° NNE 18:16:58 31° ESE
Okean-O 2.9 18:10:24 10° S 18:14:49 70° WSW 18:19:16 10° NNW
Cosmos 923 Rocket 4.1 18:09:48 10° NNW 18:15:11 80° WSW 18:20:30 10° SSE
CZ-2C R/B 4.0 18:11:16 10° S 18:16:30 53° W 18:22:01 10° NNW
Cosmos 1844 Rocket 2.7 18:12:10 10° SSW 18:17:42 59° ESE 18:19:25 42° ENE
H-2A R/B 2.1 18:13:48 10° S 18:18:48 76° WSW 18:23:58 10° NNW
Meteor 1-21 Rocket 4.0 18:14:58 10° S 18:20:27 69° E 18:25:18 14° NNE
Cosmos 158 Rocket 4.3 18:15:16 10° NNW 18:20:34 68° WSW 18:25:54 10° SSE
Meteor 2-8 Rocket 4.3 18:14:44 10° N 18:20:50 71° ENE 18:26:55 10° SSE
Aureole 2 Rocket 3.7 18:17:52 10° SSW 18:19:28 29° SSW 18:19:28 29° SSW
ATLAS 2AS CENTAUR R/B 3.6 18:13:17 10° W 18:21:00 51° NNW 18:25:30 25° NE
Meteor 2-15 4.5 18:15:25 10° N 18:21:28 54° ENE 18:24:42 27° SE
Cosmos 2195 Rocket 4.5 18:16:24 10° S 18:22:34 58° E 18:28:47 10° NNE
Cosmos 1680 Rocket 3.4 18:17:18 10° NNW 18:22:36 88° WSW 18:26:36 18° SSE
SAR-Lupe-4 4.2 18:31:28 51° SSW 18:31:28 51° SSW 18:34:12 10° SSW
H-2A R/B 4.3 18:28:46 10° N 18:32:23 24° WNW 18:35:57 10° WSW
Cosmos 1627 Rocket 4.4 18:26:21 10° S 18:32:25 60° E 18:38:35 10° NNE
Cosmos 2098 Rocket 4.4 18:26:58 10° SSE 18:33:54 54° E 18:41:04 10° NNE
Cosmos 1818 3.5 18:29:10 10° SSW 18:34:31 62° SE 18:34:52 61° ESE
Cosmos 2297 Rocket 4.3 18:33:13 10° NW 18:36:38 16° NNW 18:39:21 12° NNE
YAOGAN 1 3.6 18:32:42 10° S 18:36:52 45° W 18:41:03 10° NNW
Cosmos 1428 Rocket 4.4 18:31:16 10° S 18:37:26 61° E 18:43:39 10° NNE
CSL-04 Rocket 3.8 18:35:15 10° S 18:40:40 73° WSW 18:46:11 10° NNW
Helios 1A Rocket 3.9 18:37:43 10° S 18:41:44 47° W 18:45:46 10° NNW
USA 234 3.2 18:40:19 48° ESE 18:42:23 87° NNE 18:48:59 10° WNW
APEX 4.5 18:37:01 10° SW 18:43:58 83° NW 18:46:31 39° NNE
MOS 1 Rocket 4.1 18:40:55 14° N 18:44:28 45° WNW 18:48:33 10° SW
Iridium 4 Rocket 3.6 18:38:57 10° N 18:44:47 85° W 18:50:11 10° S
ATLAS 5 CENTAUR R/B 2.5 18:42:58 10° W 18:47:04 42° NNW 18:47:38 40° N
Cosmos 1092 Rocket 3.8 18:41:20 10° S 18:47:32 88° E 18:53:44 10° N
Cosmos 1812 Rocket 3.8 18:43:34 10° NNW 18:47:59 67° W 18:48:54 51° SSW
Meteor 1-27 4.5 18:43:08 10° N 18:47:39 50° NNE 18:47:39 50° NNE
Meteor 2-15 Rocket 4.3 18:44:33 10° N 18:50:43 68° ENE 18:51:11 66° ESE
Cosmos 2344 4.2 18:43:30 10° NW 18:52:22 88° SW 18:59:35 28° SE
SL-24 R/B - RUBIN 2 4.4 18:46:54 10° SW 18:53:37 81° SE 18:54:49 62° ENE
SJ 16-02 1.8 18:52:08 10° SW 18:56:00 59° WSW 18:56:00 59° WSW
MetOp-A 4.2 19:04:29 70° NNW 19:04:29 70° NNW 19:09:14 10° NNW
CZ-4C R/B 3.4 18:59:51 10° WNW 19:05:12 37° N 19:06:30 34° NNE
Cosmos 2263 Rocket 3.9 19:03:09 10° W 19:07:58 28° NW 19:10:38 20° N
COSMOS 2406 3.3 19:09:12 10° NW 19:14:49 77° W 19:14:49 77° W
ERS-2 4.4 19:16:37 23° WNW 19:16:37 23° WNW 19:19:07 10° WSW
Lacrosse 5 4.0 19:19:00 10° W 19:22:36 20° SW 19:24:15 17° SSW
CZ-2C R/B 3.8 19:27:19 37° SSW 19:27:19 37° SSW 19:30:35 10° SSW
Cosmos 1553 Rocket 4.3 19:28:45 10° NNW 19:35:07 64° W 19:36:14 55° SW
COSMOS 2455 3.6 19:31:02 10° WSW 19:36:49 46° NW 19:37:13 45° NNW
Cosmos 1833 Rocket 3.4 19:32:03 10° NW 19:36:25 51° WNW 19:36:25 51° WNW
Cosmos 1844 4.4 19:34:15 10° SW 19:39:07 51° WNW 19:39:07 51° WNW
Cosmos 2082 Rocket 3.2 19:34:15 10° NNW 19:37:48 40° NNW 19:37:48 40° NNW
USA 281 3.6 19:43:33 52° NNW 19:43:33 52° NNW 19:48:26 10° NNW
USA 267 4.5 19:51:35 30° SSW 19:51:35 30° SSW 19:54:46 10° SW
USA 229 DEB 4.4 19:41:22 10° NW 19:48:22 53° SW 19:49:18 50° SSW
USA 229 4.3 19:41:28 10° NW 19:48:28 54° SW 19:49:21 51° SSW
Cosmos 1844 Rocket 4.1 19:56:42 10° WSW 20:01:07 35° WNW 20:01:07 35° WNW
NOSS 3-1 (A) 4.5 19:56:50 10° NW 20:03:57 53° SW 20:04:27 52° SW
ATLAS 2AS CENTAUR R/B 3.8 20:06:16 10° WNW 20:12:56 39° N 20:12:56 39° N
USA 234 4.4 20:27:41 37° W 20:27:41 37° W 20:32:05 10° WNW
CZ-4C R/B 4.5 20:49:15 10° NW 20:51:41 23° NW 20:51:41 23° NW
